Home > Weather > Decatur > Past weeks

Flag for USA Weather for the Past 2 Weeks in Decatur, Illinois, USA

Now
50 °F

Overcast.


Feels Like: 48 °F
Forecast: 49 / 57 °F
Wind: 6 mph from Northwest

Location: Decatur Airport

Current Time: May 2, 2016 at 6:17:07 AM

Latest Report: May 2, 2016 at 4:54 AM


Visibility: 10 mi

Pressure: 30.03 "Hg

Humidity: 80%

Dew Point: 44 °F

Location of DecaturLocation

Historic Weather in Decatur — Graph

°F

Decatur Temperature Yesterday

Maximum temperature yesterday: 68 °F (at 4:54 PM)
Minimum temperature yesterday: 55 °F (at 5:54 AM)
Average temperature yesterday: 60 °F

High & Low Weather Summary for the Past Weeks

 TemperatureHumidityPressure
High82 °F (Apr 18, 2:54 PM)97% (Apr 21, 10:00 PM)30.37 "Hg (Apr 21, 10:00 PM)
Low39 °F (Apr 23, 5:54 AM)24% (Apr 18, 3:54 PM)29.64 "Hg (Apr 26, 5:54 PM)
Average62 °F71%29.96 "Hg
* Reported Apr 17 4:54 AM — May 2 4:54 AM, Decatur, Weather by CustomWeather, © 2016

Note: Actual official high and low records may vary slightly from our data, if they occured in-between our weather recording intervals... More about our weather records

Advertising

Decatur Weather History for the Previous 24 Hours

Scroll right to see more
 ConditionsComfort  
Time TempWeatherWind HumidityBarometerVisibility
4:54 AM
Mon, May 2
50 °FOvercast.6 mph80%30.03 "Hg10 mi
4:02 AM50 °FMostly cloudy.13 mph86%30.01 "Hg10 mi
2:54 AM51 °FOvercast.9 mph83%30.00 "Hg10 mi
1:54 AM52 °FMostly cloudy.8 mph86%29.99 "Hg8 mi
12:54 AM53 °FFog.9 mph86%30.00 "Hg6 mi
12:01 AM53 °FMostly cloudy.9 mph86%29.99 "Hg7 mi
10:59 PM
Sun, May 1
55 °FFog.10 mph87%29.97 "Hg6 mi
10:01 PM56 °FMostly cloudy.13 mph84%29.98 "Hg7 mi
8:54 PM57 °FMostly cloudy.15 mph83%29.96 "Hg7 mi
7:54 PM58 °FFog.13 mph87%29.93 "Hg4 mi
6:54 PM63 °FPartly sunny.10 mph81%29.90 "Hg10 mi
5:54 PM67 °FOvercast.8 mph73%29.88 "Hg10 mi
4:54 PM68 °FPartly sunny.9 mph73%29.88 "Hg10 mi
3:54 PM67 °FCloudy.8 mph76%29.89 "Hg10 mi
2:54 PM67 °FMostly cloudy.No wind73%29.91 "Hg10 mi
1:54 PM65 °FMostly cloudy.7 mph78%29.93 "Hg10 mi
12:54 PM63 °FOvercast.6 mph81%29.94 "Hg10 mi
11:54 AM61 °FLow clouds.10 mph83%29.94 "Hg10 mi
10:54 AM58 °FLow clouds.7 mph87%29.95 "Hg9 mi
9:54 AM58 °FFog.6 mph90%29.93 "Hg6 mi
8:54 AM55 °FFog.6 mph93%29.94 "Hg2 mi
7:54 AM55 °FFog.6 mph93%29.92 "Hg1 mi
6:54 AM56 °FFog.7 mph93%29.89 "Hg0 mi
Weather by CustomWeather, © 2016

See weather overviewHow to use our weather pages